Location: Newark
(47.5500°N, 8.6167°E)
Time: 07:22:50
(UTC+00:00)

Envisat - Pass Details

Date: 27 January 2020
Orbit: 764 x 766 km, 98.1° (Epoch: 20 February)

Event Time Altitude Azimuth Distance (km) Brightness Sun altitude
Rises 04:56:57 0° 27° (NNE) 3,243 6.5 -20.5°
Reaches altitude 10° 04:59:57 10° 45° (NE) 2,311 6.0 -20.0°
Maximum altitude 05:03:30 19° 90° (E) 1,776 5.9 -19.4°
Drops below altitude 10° 05:07:01 10° 134° (SE) 2,298 6.2 -18.8°
Sets 05:09:59 0° 152° (SSE) 3,218 6.7 -18.3°
